Location: Springfield
(37.2150°N, 93.2980°W)
Time: 08:57:33
(UTC-05:00)

Cosmos 2221 - Pass Details

Date: 19 April 2018
Orbit: 594 x 615 km, 82.5° (Epoch: 17 September)

Event Time Altitude Azimuth Distance (km) Brightness Sun altitude
Rises 20:37:30 0° 199° (SSW) 2,825 5.9 -9.4°
Reaches altitude 10° 20:39:46 10° 205° (SSW) 1,925 5.1 -9.8°
Maximum altitude 20:43:52 47° 280° (W) 796 3.7 -10.6°
Drops below altitude 10° 20:47:59 10° 354° (N) 1,934 5.5 -11.3°
Sets 20:50:16 0° 1° (N) 2,840 6.3 -11.8°
